Regional Weather Roundup
Issued by NWS Goodland, KS

Home | Current Version | Previous Version | Text Only | Print | Product List | Glossary Off
Versions: 1 2 3 4 5 6 7 8 9 10 11 12 13 14 15 16 17 18 19 20 21 22 23 24 25 26 27 28 29 30 31 32 33 34 35 36 37 38 39 40 41 42 43 44 45 46 47 48 49 50

000
ASUS43 KGLD 260659
RWRGLD

GOODLAND FORECAST AREA HOURLY WEATHER ROUNDUP
NATIONAL WEATHER SERVICE GOODLAND KS
100 AM MDT FRI AUG 26 2016

...OFFICIAL OBSERVATIONS...

CITY           SKY/WX    TMP DP  RH WIND       PRES   REMARKS
GOODLAND KS    FAIR      56  51  84 S5        30.20S
HILL CITY KS   MOCLDY    59  57  93 N6        30.18S
IMPERIAL NEB   FAIR      57  50  77 SE6       30.20F
MCCOOK NEB     FAIR      59  54  83 SE5       30.18F
AKRON CO       MOCLDY    61  53  75 S13       30.21F
BURLINGTON CO  FAIR      56  49  77 SE7       30.22F
LIMON CO       CLOUDY    56  51  84 S3        30.25F
$$

...UNOFFICIAL OBSERVATIONS...

CITY           SKY/WX    TMP DP  RH WIND       PRES   REMARKS
COLBY KS       MOCLDY    59  55  88 E6        30.20F
LENORA KS        N/A     61  32  33 MISG        N/A
NORTON KS      CLOUDY    59  52  77 NE5       30.17
SHARON SPRINGS   N/A     58  54  87 CALM        N/A
TRENTON NEB      N/A     57  32  39 MISG        N/A
KIT CARSON CO    N/A     60  53  78 CALM        N/A
$$




USA.gov is the U.S. government's official web portal to all federal, state and local government web resources and services.